Kremmling, CO

1:27 PM MDT on July 24, 2017 (GMT -0600)
Kremmling

Weather History for K20V - March, 2013

Change the Weather History Date:

Monday, March 4, 2013

  Actual Average Record
Temperature  
Mean Temperature 22 °F -  
Max Temperature 35 °F - 59 °F (2017)
Min Temperature 6 °F - -9 °F (2007)
Degree Days  
Heating Degree Days 44    
Month to date heating degree days  
Cooling Degree Days 0    
Month to date cooling degree days  
Moisture  
Dew Point 16 °F    
Average Humidity 69    
Maximum Humidity 93    
Minimum Humidity 37    
Precipitation  
Precipitation 0.03 in - 0.03 in (2011)
Sea Level Pressure  
Sea Level Pressure 29.96 in    
Wind  
Wind Speed 5 mph (NW)    
Max Wind Speed 26 mph    
Max Gust Speed 33 mph    
T = Trace of Precipitation, MM = Missing Value Source: NWS Daily Summary

Daily Weather History Graph

Daily Weather History Graph

Search for Another Location

Airport or City:

Trip Planner

Search our weather history database for the weather conditions in past years. The results will help you decide how hot, cold, wet, or windy it might be!

Date:

Astronomy

Mar. 04, 2013 Rise Set
Actual Time 6:33 AM MST 6:00 PM MST
Civil Twilight 6:06 AM MST 6:28 PM MST
Nautical Twilight 5:35 AM MST 6:59 PM MST
Astronomical Twilight 5:03 AM MST 7:30 PM MST
Moon 12:46 AM MST (3/4) 10:45 AM MST (3/4)
Length of Visible Light 12h 21m
Length of Day
11h 27m
Waning Gibbous, 51% of the Moon is Illuminated
Mar 4
Waning Gibbous
Mar 4
Last Quarter
Mar 11
New
Mar 19
First Quarter
Mar 27
Full

Hourly Weather History & Observations

Time (MST) Temp. Windchill Dew Point Humidity Pressure Visibility Wind Dir Wind Speed Gust Speed Precip Events Conditions
12:15 AM 35.6 °F - 28.4 °F 75% 29.81 in - Calm Calm - N/A   Overcast
12:36 AM 35.6 °F 31.7 °F 28.4 °F 75% 29.81 in - West 4.6 mph - N/A   Overcast
12:55 AM 35.6 °F - 28.4 °F 75% 29.81 in - Calm Calm - N/A   Overcast
1:16 AM 33.8 °F 30.8 °F 30.2 °F 87% 29.81 in - North 3.5 mph - N/A   Overcast
1:36 AM 33.8 °F 28.6 °F 32.0 °F 93% 29.82 in - North 5.8 mph - N/A   Unknown
1:56 AM 32.0 °F 28.7 °F 30.2 °F 93% 29.81 in - NNE 3.5 mph - N/A Snow Light Snow
2:16 AM 32.0 °F - 30.2 °F 93% 29.81 in - Calm Calm - 0.01 in Snow Snow
2:36 AM 32.0 °F - 30.2 °F 93% 29.81 in - Calm Calm - 0.01 in Snow Light Snow
2:56 AM 32.0 °F - 30.2 °F 93% 29.81 in - Calm Calm - 0.02 in Snow Light Snow
3:16 AM 32.0 °F - 30.2 °F 93% 29.80 in - Calm Calm - N/A Snow Light Snow
3:36 AM 32.0 °F - 30.2 °F 93% 29.79 in - Calm Calm - N/A Snow Light Snow
3:55 AM 32.0 °F - 30.2 °F 93% 29.80 in - Calm Calm - N/A   Unknown
4:15 AM 32.0 °F - 30.2 °F 93% 29.80 in - Calm Calm - N/A   Unknown
4:33 AM 32.0 °F - 30.2 °F 93% 29.81 in - Calm Calm - N/A   Overcast
4:55 AM 32.0 °F 27.5 °F 28.4 °F 87% 29.81 in - NNW 4.6 mph - N/A Snow Light Snow
5:16 AM 32.0 °F 27.5 °F 23.0 °F 69% 29.82 in - West 4.6 mph - N/A   Overcast
5:30 AM 32.0 °F 26.4 °F 24.8 °F 75% 29.82 in - WNW 5.8 mph - N/A   Overcast
5:56 AM 32.0 °F 28.7 °F 24.8 °F 75% 29.83 in - NNW 3.5 mph - N/A   Overcast
6:16 AM 32.0 °F - 23.0 °F 69% 29.82 in - Calm Calm - N/A   Overcast
6:31 AM 30.2 °F 26.7 °F 24.8 °F 80% 29.82 in - South 3.5 mph - N/A   Overcast
6:51 AM 30.2 °F 23.4 °F 26.6 °F 86% 29.82 in - South 6.9 mph - N/A   Unknown
7:11 AM 30.2 °F 25.4 °F 26.6 °F 86% 29.82 in - SSW 4.6 mph - N/A   Unknown
7:33 AM 32.0 °F 27.5 °F 23.0 °F 69% 29.83 in - SW 4.6 mph - N/A   Overcast
7:56 AM 32.0 °F - 23.0 °F 69% 29.83 in - Calm Calm - N/A   Overcast
8:11 AM 32.0 °F 27.5 °F 24.8 °F 75% 29.83 in - SW 4.6 mph - N/A   Overcast
8:36 AM 32.0 °F - 23.0 °F 69% 29.82 in - Calm Calm - N/A   Overcast
8:53 AM 32.0 °F - 24.8 °F 75% 29.82 in - Calm Calm - N/A   Overcast
9:16 AM 32.0 °F - 24.8 °F 75% 29.81 in - Calm Calm - N/A   Overcast
9:36 AM 33.8 °F 30.8 °F 26.6 °F 75% 29.81 in - WNW 3.5 mph - N/A   Overcast
9:50 AM 33.8 °F 27.7 °F 26.6 °F 75% 29.81 in - North 6.9 mph - N/A   Overcast
10:14 AM 32.0 °F 23.0 °F 26.6 °F 80% 29.82 in - NNW 11.5 mph - 0.01 in Snow Light Snow
10:36 AM 32.0 °F 22.1 °F 19.4 °F 60% 29.83 in - NNW 13.8 mph 23.0 mph 0.01 in   Overcast
10:54 AM 32.0 °F 22.5 °F 19.4 °F 60% 29.83 in - NNW 12.7 mph 19.6 mph 0.01 in   Overcast
11:16 AM 32.0 °F 21.6 °F 17.6 °F 55% 29.84 in - NW 15.0 mph 24.2 mph N/A   Overcast
11:51 AM 28.4 °F 15.4 °F 14.0 °F 55% 29.86 in - NW 19.6 mph 31.1 mph N/A   Overcast
12:10 PM 28.4 °F 14.4 °F 12.2 °F 51% 29.88 in - NW 23.0 mph 29.9 mph N/A   Overcast
12:31 PM 28.4 °F 17.0 °F 10.4 °F 47% 29.90 in - NW 15.0 mph 24.2 mph N/A   Overcast
12:56 PM 28.4 °F 15.8 °F 10.4 °F 47% 29.92 in - NW 18.4 mph 31.1 mph N/A   Overcast
1:13 PM 28.4 °F 16.6 °F 10.4 °F 47% 29.93 in - NW 16.1 mph 24.2 mph N/A   Overcast
1:36 PM 24.8 °F 14.6 °F 10.4 °F 54% 29.94 in - WNW 10.4 mph 25.3 mph N/A   Overcast
1:56 PM 26.6 °F 14.7 °F 10.4 °F 51% 29.94 in - NW 15.0 mph 20.7 mph N/A   Mostly Cloudy
2:14 PM 30.2 °F 19.8 °F 8.6 °F 40% 29.96 in - NW 13.8 mph 27.6 mph N/A   Scattered Clouds
2:36 PM 30.2 °F 17.1 °F 8.6 °F 40% 29.96 in - NW 21.9 mph 26.5 mph N/A   Clear
2:56 PM 30.2 °F 20.2 °F 8.6 °F 40% 29.97 in - NNW 12.7 mph 25.3 mph N/A   Clear
3:13 PM 28.4 °F 18.0 °F 6.8 °F 40% 29.99 in - NNW 12.7 mph 18.4 mph N/A   Scattered Clouds
3:32 PM 28.4 °F 18.0 °F 10.4 °F 47% 30.01 in - North 12.7 mph 28.8 mph N/A   Mostly Cloudy
3:56 PM 26.6 °F 13.1 °F 8.6 °F 47% 30.04 in - NW 19.6 mph 32.2 mph N/A   Overcast
4:16 PM 26.6 °F 11.1 °F 5.0 °F 40% 30.03 in - NW 26.5 mph 33.4 mph N/A   Scattered Clouds
4:36 PM 26.6 °F 13.1 °F 3.2 °F 37% 30.06 in - NW 19.6 mph 31.1 mph N/A   Clear
4:51 PM 26.6 °F 13.1 °F 3.2 °F 37% 30.07 in - NW 19.6 mph 23.0 mph N/A   Clear
5:12 PM 24.8 °F 11.5 °F 3.2 °F 40% 30.09 in - NW 17.3 mph 23.0 mph N/A   Scattered Clouds
5:36 PM 23.0 °F 10.1 °F 5.0 °F 46% 30.11 in - NW 15.0 mph 19.6 mph N/A   Scattered Clouds
5:51 PM 21.2 °F 12.6 °F 8.6 °F 58% 30.13 in - NW 6.9 mph - N/A   Clear
6:13 PM 21.2 °F 14.9 °F 8.6 °F 58% 30.14 in - NNW 4.6 mph - N/A   Clear
6:30 PM 19.4 °F 14.3 °F 8.6 °F 63% 30.16 in - NNW 3.5 mph - N/A   Clear
6:56 PM 19.4 °F 12.8 °F 10.4 °F 68% 30.17 in - West 4.6 mph - N/A   Scattered Clouds
7:16 PM 17.6 °F - 8.6 °F 68% 30.18 in - Calm Calm - N/A   Clear
7:32 PM 14.0 °F 5.1 °F 8.6 °F 79% 30.19 in - ENE 5.8 mph - N/A   Clear
7:51 PM 14.0 °F 2.9 °F 8.6 °F 79% 30.19 in - ESE 8.1 mph - N/A   Clear
8:16 PM 14.0 °F 6.5 °F 8.6 °F 79% 30.20 in - East 4.6 mph - N/A   Clear
8:29 PM 14.0 °F 5.1 °F 6.8 °F 73% 30.20 in - East 5.8 mph - N/A   Clear
8:56 PM 14.0 °F - 8.6 °F 79% 30.22 in - Calm Calm - N/A   Clear
9:16 PM 12.2 °F - 5.0 °F 73% 30.22 in - Calm Calm - N/A   Clear
9:36 PM 12.2 °F - 5.0 °F 73% 30.22 in - Calm Calm - N/A   Clear
9:51 PM 10.4 °F 4.0 °F 3.2 °F 73% 30.22 in - East 3.5 mph - N/A   Clear
10:11 PM 10.4 °F 2.2 °F 3.2 °F 73% 30.23 in - ESE 4.6 mph - N/A   Clear
10:33 PM 10.4 °F - 3.2 °F 73% 30.23 in - Calm Calm - N/A   Clear
10:56 PM 8.6 °F 2.0 °F 1.4 °F 73% 30.24 in - East 3.5 mph - N/A   Clear
11:14 PM 10.4 °F 2.2 °F 3.2 °F 73% 30.24 in - East 4.6 mph - N/A   Clear
11:35 PM 8.6 °F 2.0 °F 1.4 °F 73% 30.24 in - East 3.5 mph - N/A   Clear
11:56 PM 6.8 °F - 1.4 °F 79% 30.24 in - Calm Calm - N/A   Clear